FENGYUN 1C DEB, 31649

Orbit data source: Space-Track

FENGYUN 1C DEB, 31649 is space debris in SSO originally from a launch on Mon, 10 May 1999 UTC launched from the Taiyaun Space Center, China (TSC). Fengyun 1C debris stems from the Chinese weather satellite Fengyun-1C, which was intentionally destroyed by a Chinese anti-satellite missile in 2007. This event dramatically increased the amount of space debris, with thousands of trackable fragments posing hazards to satellites and human spaceflight. The Fengyun 1C debris cloud has become a focal point in discussions about space sustainability and the need for international regulations to prevent the creation of new debris.

Loading next visibility...
Identifier
31649, 1999-025CBF
Orbit
SSO
Country
Flag of CNCN / PRC
Related business
Manufacturer
Unknown
Mission
Spacecraft
Bus & Motor
Unknown
Mass
Unknown
Launch date (UTC)
1999-05-10 (27 years ago)
Launch vehicle
Unknown
Launch site
Taiyaun Space Center, China (TSC)
Object type
Payload
Rocket body
Debris
Shape & HBR
Unknown shape, 0.1 m
Radar Cross Section
Small (<0.1 m²)

Expand to show TLE details & history
Last TLE update: 2 years ago

TLE from 2 years ago
0 FENGYUN 1C DEB
1 31649U 99025CBF 25048.45150947  .00003756  00000-0  34875-2 0  9992
2 31649  98.1772 127.9000 0266648 290.3938  66.8757 13.67958507882855
Epoch: 2025-02-17T10:50Z
TLE epoch observation values (Epoch: 2025-02-17T10:50:10.418Z)
Latitude
-0.00005°
Longitude
177.68658°
Altitude
936.932 km
Speed
7.42 km/s
True Right ascension
08h 31m 36s
True Declination
0° 00' 00"
Sunlit
Object was in full shadow at epoch
Visualization orbit readout
Latitude
Unknown
Longitude
Unknown
Altitude
Unknown
Speed
Unknown
Apparent Right ascension
Unknown
Apparent Declination
Unknown
Sunlit
N/A
Visualization observer readout
Local Sidereal Time
01:15:29
Azimuth
Unknown
Elevation
Unknown
Doppler factor
Unknown
Orbital elements
Apogee altitude
1,200.957 km
Perigee altitude
807.265 km
Semi-major axis
7,382.248 km
Eccentricity
0.02666
Inclination
98.1772°
RAAN
127.9°
Arg. of periapsis
290.3938°
True anomaly
69.72184°
Mean anomaly
66.8757°
Eccentric anomaly
68.29516°
Mean motion
3.42184 °/min
Orbital period
105.21 mins
BSTAR
0.0034875
Loading maneuver chart data...
Computing Atmospheric mass density...
Loading historical data...
Loading historical data...
Loading historical data...
Loading historical data...
Loading historical data...
Loading historical data...
Loading historical data...

Documentation

Showing up to 5 results
|